Plano's Hourly Summary for Wednesday, April 19, 2017
Hour Temp
(f)
RH
(%)
Solar Rad.
(MJ/m2)
Rainfall
(in)
Wind
(mph)
4/19/2017 12:00 AM 68 75 0 0 1.56
4/19/2017 1:00 AM 67 80 0 0 1.3
4/19/2017 2:00 AM 66 83 0 0 0.64
4/19/2017 3:00 AM 65 88 0 0 0.75
4/19/2017 4:00 AM 65 90 0 0 2.45
4/19/2017 5:00 AM 65 89 0 0 3.4
4/19/2017 6:00 AM 65 87 0 0 3.21
4/19/2017 7:00 AM 65 86 0 0 3.56
4/19/2017 8:00 AM 66 84 0.07 0 2.79
4/19/2017 9:00 AM 67 75 0.52 0 3.67
4/19/2017 10:00 AM 69 72 0.84 0 3.85
4/19/2017 11:00 AM 70 69 0.91 0 4.92
4/19/2017 12:00 PM 72 65 1.46 0 4.4
4/19/2017 1:00 PM 74 60 1.9 0 5.2
4/19/2017 2:00 PM 76 55 1.84 0 5.81
4/19/2017 3:00 PM 78 52 2.28 0 5.61
4/19/2017 4:00 PM 80 50 2.47 0 6.71
4/19/2017 5:00 PM 80 49 1.51 0 6.12
4/19/2017 6:00 PM 80 52 0.83 0 5.51
4/19/2017 7:00 PM 79 53 0.36 0.01 4.11
4/19/2017 8:00 PM 78 58 0.1 0 3.39
4/19/2017 9:00 PM 76 61 0 0 3.22
4/19/2017 10:00 PM 75 63 0 0 3.84
4/19/2017 11:00 PM 74 68 0 0 4.8
Data Summary 71 69 15.09 0.01 3.78